This is the latest recevied weather packets stored in our database for station/object SV1TGC. If no packets are shown the sender has not sent any weather packets the latest 10 day(s).
| Time | Temp. | Humidity | Pressure | Rain* | Wind** | Luminosity | Snow |
|---|---|---|---|---|---|---|---|
| 1778092253 | 17.78° C | 51% | 1016.2 hPa | 0 mm | - | - | - |
| 1778091348 | 17.78° C | 50% | 1016.1 hPa | 0 mm | - | - | - |
| 1778086534 | 20.56° C | 44% | 1015.7 hPa | 0 mm | - | - | - |
| 1778083262 | 21.67° C | 45% | 1015.8 hPa | 0 mm | - | - | - |
| 1778082633 | 21.67° C | 45% | 1015.6 hPa | 0 mm | - | - | - |
| 1778079654 | 21.67° C | 51% | 1016.1 hPa | 0 mm | - | - | - |
| 1778077234 | 21.67° C | 51% | 1016.2 hPa | 0 mm | - | - | - |
| 1778076636 | 21.67° C | 50% | 1016.2 hPa | 0 mm | - | - | - |
| 1778076333 | 21.67° C | 50% | 1016.1 hPa | 0 mm | - | - | - |
| 1778076051 | 21.67° C | 51% | 1016.2 hPa | 0 mm | - | - | - |
| 1778074534 | 21.67° C | 51% | 1016.3 hPa | 0 mm | - | - | - |
| 1778073365 | 22.22° C | 54% | 1016.3 hPa | 0 mm | - | - | - |
| 1778073035 | 22.22° C | 54% | 1016.1 hPa | 0 mm | - | - | - |
| 1778071834 | 22.22° C | 54% | 1016.2 hPa | 0 mm | - | - | - |
| 1778071546 | 22.78° C | 53% | 1016.3 hPa | 0 mm | - | - | - |
| 1778069750 | 22.22° C | 51% | 1016.5 hPa | 0 mm | - | - | - |
| 1778069434 | 22.22° C | 51% | 1016.5 hPa | 0 mm | - | - | - |
| 1778068851 | 21.67° C | 53% | 1016.6 hPa | 0 mm | - | - | - |
| 1778067048 | 21.67° C | 51% | 1016.6 hPa | 0 mm | - | - | - |
| 1778064634 | 22.22° C | 54% | 1016.6 hPa | 0 mm | - | - | - |
| 1778062550 | 22.22° C | 48% | 1016.7 hPa | 0 mm | - | - | - |
| 1778062235 | 22.22° C | 47% | 1016.7 hPa | 0 mm | - | - | - |
| 1778059239 | 23.33° C | 43% | 1016.8 hPa | 0 mm | - | - | - |
| 1778055636 | 22.22° C | 48% | 1016.5 hPa | 0 mm | - | - | - |
| 1778055352 | 22.22° C | 48% | 1016.5 hPa | 0 mm | - | - | - |
* Rain latest hour (hover to see other rain measurements)
** Current wind speed in m/s (hover to see current wind gust speed)